Year,Month,Day,Hour,Minute,Value (Times are PST for windspeed in km/hr)
2015,03,13,00,00,2.50
2015,03,13,00,01,0.80
2015,03,13,00,02,4.20
2015,03,13,00,03,5.90
2015,03,13,00,04,4.70
2015,03,13,00,05,5.20
2015,03,13,00,06,5.00
2015,03,13,00,07,4.50
2015,03,13,00,08,2.80
2015,03,13,00,09,3.10
2015,03,13,00,10,2.00
2015,03,13,00,11,2.80
2015,03,13,00,12,6.30
2015,03,13,00,13,7.00
2015,03,13,00,14,8.90
2015,03,13,00,15,6.40
2015,03,13,00,16,6.70
2015,03,13,00,17,3.90
2015,03,13,00,18,2.90
2015,03,13,00,19,1.20
2015,03,13,00,20,4.40
2015,03,13,00,21,8.40
2015,03,13,00,22,6.00
2015,03,13,00,23,3.50
2015,03,13,00,24,3.40
2015,03,13,00,25,2.20
2015,03,13,00,26,0.80
2015,03,13,00,27,1.70
2015,03,13,00,28,0.90
2015,03,13,00,29,4.00
2015,03,13,00,30,4.00
2015,03,13,00,31,1.80
2015,03,13,00,32,0.80
2015,03,13,00,33,1.70
2015,03,13,00,34,3.30
2015,03,13,00,35,3.20
2015,03,13,00,36,5.60
2015,03,13,00,37,7.00
2015,03,13,00,38,12.30
2015,03,13,00,39,5.00
2015,03,13,00,40,5.90
2015,03,13,00,41,5.90
2015,03,13,00,42,6.30
2015,03,13,00,43,4.00
2015,03,13,00,44,2.40
2015,03,13,00,45,2.30
2015,03,13,00,46,3.40
2015,03,13,00,47,3.60
2015,03,13,00,48,4.00
2015,03,13,00,49,3.50
2015,03,13,00,50,3.10
2015,03,13,00,51,4.10
2015,03,13,00,52,2.60
2015,03,13,00,53,2.40
2015,03,13,00,54,3.00
2015,03,13,00,55,3.90
2015,03,13,00,56,2.80
2015,03,13,00,57,2.70
2015,03,13,00,58,2.70
2015,03,13,00,59,2.30
2015,03,13,01,00,1.40
2015,03,13,01,01,1.10
2015,03,13,01,02,1.70
2015,03,13,01,03,2.50
2015,03,13,01,04,2.70
2015,03,13,01,05,1.90
2015,03,13,01,06,0.50
2015,03,13,01,07,0.30
2015,03,13,01,08,0.30
2015,03,13,01,09,0.70
2015,03,13,01,10,1.90
2015,03,13,01,11,1.60
2015,03,13,01,12,1.80
2015,03,13,01,13,1.90
2015,03,13,01,14,0.60
2015,03,13,01,15,0.20
2015,03,13,01,16,2.10
2015,03,13,01,17,3.40
2015,03,13,01,18,4.40
2015,03,13,01,19,4.20
2015,03,13,01,20,3.20
2015,03,13,01,21,2.50
2015,03,13,01,22,3.00
2015,03,13,01,23,2.60
2015,03,13,01,24,2.10
2015,03,13,01,25,0.80
2015,03,13,01,26,0.80
2015,03,13,01,27,0.30
2015,03,13,01,28,1.00
2015,03,13,01,29,0.40
2015,03,13,01,30,1.20
2015,03,13,01,31,3.30
2015,03,13,01,32,1.30
2015,03,13,01,33,0.00
2015,03,13,01,34,0.40
2015,03,13,01,35,0.50
2015,03,13,01,36,0.80
2015,03,13,01,37,1.00
2015,03,13,01,38,0.80
2015,03,13,01,39,2.90
2015,03,13,01,40,3.60
2015,03,13,01,41,3.10
2015,03,13,01,42,3.80
2015,03,13,01,43,3.10
2015,03,13,01,44,3.00
2015,03,13,01,45,3.40
2015,03,13,01,46,4.10
2015,03,13,01,47,5.70
2015,03,13,01,48,5.50
2015,03,13,01,49,5.60
2015,03,13,01,50,4.80
2015,03,13,01,51,3.00
2015,03,13,01,52,2.40
2015,03,13,01,53,2.30
2015,03,13,01,54,3.70
2015,03,13,01,55,2.00
2015,03,13,01,56,1.90
2015,03,13,01,57,0.90
2015,03,13,01,58,1.00
2015,03,13,01,59,0.60
2015,03,13,02,00,0.50
2015,03,13,02,01,1.20
2015,03,13,02,02,2.10
2015,03,13,02,03,1.90
2015,03,13,02,04,1.70
2015,03,13,02,05,1.90
2015,03,13,02,06,1.20
2015,03,13,02,07,1.80
2015,03,13,02,08,1.30
2015,03,13,02,09,1.10
2015,03,13,02,10,0.30
2015,03,13,02,11,0.10
2015,03,13,02,12,0.00
2015,03,13,02,13,0.30
2015,03,13,02,14,0.80
2015,03,13,02,15,1.10
2015,03,13,02,16,0.70
2015,03,13,02,17,0.00
2015,03,13,02,18,0.30
2015,03,13,02,19,1.00
2015,03,13,02,20,0.40
2015,03,13,02,21,0.10
2015,03,13,02,22,0.80
2015,03,13,02,23,0.50
2015,03,13,02,24,0.90
2015,03,13,02,25,2.40
2015,03,13,02,26,2.70
2015,03,13,02,27,2.00
2015,03,13,02,28,1.80
2015,03,13,02,29,1.80
2015,03,13,02,30,1.90
2015,03,13,02,31,2.30
2015,03,13,02,32,2.80
2015,03,13,02,33,3.00
2015,03,13,02,34,3.10
2015,03,13,02,35,1.70
2015,03,13,02,36,0.00
2015,03,13,02,37,0.30
2015,03,13,02,38,1.00
2015,03,13,02,39,0.40
2015,03,13,02,40,0.90
2015,03,13,02,41,1.20
2015,03,13,02,42,0.10
2015,03,13,02,43,0.10
2015,03,13,02,44,1.50
2015,03,13,02,45,1.60
2015,03,13,02,46,1.00
2015,03,13,02,47,1.10
2015,03,13,02,48,0.50
2015,03,13,02,49,0.60
2015,03,13,02,50,0.80
2015,03,13,02,51,0.80
2015,03,13,02,52,0.90
2015,03,13,02,53,2.10
2015,03,13,02,54,2.70
2015,03,13,02,55,3.40
2015,03,13,02,56,3.10
2015,03,13,02,57,3.40
2015,03,13,02,58,2.70
2015,03,13,02,59,1.80
2015,03,13,03,00,2.00
2015,03,13,03,01,2.40
2015,03,13,03,02,3.30
2015,03,13,03,03,2.90
2015,03,13,03,04,2.10
2015,03,13,03,05,1.60
2015,03,13,03,06,0.70
2015,03,13,03,07,0.10
2015,03,13,03,08,0.00
2015,03,13,03,09,0.10
2015,03,13,03,10,0.20
2015,03,13,03,11,1.10
2015,03,13,03,12,2.60
2015,03,13,03,13,2.10
2015,03,13,03,14,1.30
2015,03,13,03,15,1.30
2015,03,13,03,16,1.60
2015,03,13,03,17,2.40
2015,03,13,03,18,2.20
2015,03,13,03,19,1.10
2015,03,13,03,20,0.90
2015,03,13,03,21,1.30
2015,03,13,03,22,0.60
2015,03,13,03,23,0.10
2015,03,13,03,24,0.60
2015,03,13,03,25,0.90
2015,03,13,03,26,1.30
2015,03,13,03,27,1.40
2015,03,13,03,28,1.10
2015,03,13,03,29,0.60
2015,03,13,03,30,0.00
2015,03,13,03,31,0.00
2015,03,13,03,32,0.00
2015,03,13,03,33,0.00
2015,03,13,03,34,0.40
2015,03,13,03,35,1.00
2015,03,13,03,36,1.10
2015,03,13,03,37,1.00
2015,03,13,03,38,0.60
2015,03,13,03,39,0.20
2015,03,13,03,40,0.00
2015,03,13,03,41,0.00
2015,03,13,03,42,0.00
2015,03,13,03,43,0.00
2015,03,13,03,44,0.00
2015,03,13,03,45,0.80
2015,03,13,03,46,2.00
2015,03,13,03,47,2.60
2015,03,13,03,48,2.10
2015,03,13,03,49,2.40
2015,03,13,03,50,2.00
2015,03,13,03,51,0.70
2015,03,13,03,52,0.10
2015,03,13,03,53,1.00
2015,03,13,03,54,0.40
2015,03,13,03,55,0.20
2015,03,13,03,56,0.00
2015,03,13,03,57,0.00
2015,03,13,03,58,0.00
2015,03,13,03,59,0.00
2015,03,13,04,00,0.00
2015,03,13,04,01,0.00
2015,03,13,04,02,0.70
2015,03,13,04,03,1.70
2015,03,13,04,04,2.80
2015,03,13,04,05,2.20
2015,03,13,04,06,2.90
2015,03,13,04,07,3.60
2015,03,13,04,08,2.20
2015,03,13,04,09,1.40
2015,03,13,04,10,1.50
2015,03,13,04,11,1.70
2015,03,13,04,12,2.00
2015,03,13,04,13,2.00
2015,03,13,04,14,1.10
2015,03,13,04,15,0.30
2015,03,13,04,16,0.00
2015,03,13,04,17,0.00
2015,03,13,04,18,0.00
2015,03,13,04,19,1.60
2015,03,13,04,20,2.10
2015,03,13,04,21,1.10
2015,03,13,04,22,1.00
2015,03,13,04,23,1.40
2015,03,13,04,24,2.00
2015,03,13,04,25,2.40
2015,03,13,04,26,2.40
2015,03,13,04,27,2.20
2015,03,13,04,28,2.50
2015,03,13,04,29,2.20
2015,03,13,04,30,2.00
2015,03,13,04,31,0.90
2015,03,13,04,32,1.10
2015,03,13,04,33,1.20
2015,03,13,04,34,1.60
2015,03,13,04,35,1.60
2015,03,13,04,36,1.30
2015,03,13,04,37,0.80
2015,03,13,04,38,0.10
2015,03,13,04,39,0.00
2015,03,13,04,40,0.10
2015,03,13,04,41,0.40
2015,03,13,04,42,0.90
2015,03,13,04,43,1.20
2015,03,13,04,44,1.20
2015,03,13,04,45,1.00
2015,03,13,04,46,0.80
2015,03,13,04,47,1.70
2015,03,13,04,48,1.70
2015,03,13,04,49,1.80
2015,03,13,04,50,1.30
2015,03,13,04,51,0.80
2015,03,13,04,52,1.00
2015,03,13,04,53,1.10
2015,03,13,04,54,1.00
2015,03,13,04,55,0.30
2015,03,13,04,56,0.00
2015,03,13,04,57,0.00
2015,03,13,04,58,0.00
2015,03,13,04,59,0.00
2015,03,13,05,00,0.00
2015,03,13,05,01,0.00
2015,03,13,05,02,0.00
2015,03,13,05,03,0.00
2015,03,13,05,04,0.00
2015,03,13,05,05,0.00
2015,03,13,05,06,0.00
2015,03,13,05,07,0.60
2015,03,13,05,08,1.30
2015,03,13,05,09,1.60
2015,03,13,05,10,1.70
2015,03,13,05,11,2.20
2015,03,13,05,12,2.70
2015,03,13,05,13,2.10
2015,03,13,05,14,1.70
2015,03,13,05,15,0.90
2015,03,13,05,16,1.50
2015,03,13,05,17,1.20
2015,03,13,05,18,1.90
2015,03,13,05,19,1.70
2015,03,13,05,20,1.80
2015,03,13,05,21,2.30
2015,03,13,05,22,2.40
2015,03,13,05,23,3.10
2015,03,13,05,24,2.50
2015,03,13,05,25,2.20
2015,03,13,05,26,1.90
2015,03,13,05,27,1.80
2015,03,13,05,28,1.90
2015,03,13,05,29,1.90
2015,03,13,05,30,2.10
2015,03,13,05,31,2.10
2015,03,13,05,32,0.40
2015,03,13,05,33,0.60
2015,03,13,05,34,0.30
2015,03,13,05,35,2.30
2015,03,13,05,36,1.20
2015,03,13,05,37,1.90
2015,03,13,05,38,1.00
2015,03,13,05,39,2.10
2015,03,13,05,40,0.90
2015,03,13,05,41,1.40
2015,03,13,05,42,0.00
2015,03,13,05,43,2.10
2015,03,13,05,44,0.30
2015,03,13,05,45,1.10
2015,03,13,05,46,1.30
2015,03,13,05,47,3.30
2015,03,13,05,48,3.50
2015,03,13,05,49,3.20
2015,03,13,05,50,1.70
2015,03,13,05,51,1.70
2015,03,13,05,52,2.10
2015,03,13,05,53,3.50
2015,03,13,05,54,3.00
2015,03,13,05,55,1.80
2015,03,13,05,56,0.30
2015,03,13,05,57,0.10
2015,03,13,05,58,0.60
2015,03,13,05,59,0.40
2015,03,13,06,00,0.00
2015,03,13,06,01,0.00
2015,03,13,06,02,0.20
2015,03,13,06,03,0.00
2015,03,13,06,04,0.00
2015,03,13,06,05,0.00
2015,03,13,06,06,0.00
2015,03,13,06,07,0.00
2015,03,13,06,08,0.00
2015,03,13,06,09,0.00
2015,03,13,06,10,0.00
2015,03,13,06,11,0.60
2015,03,13,06,12,0.80
2015,03,13,06,13,0.50
2015,03,13,06,14,1.30
2015,03,13,06,15,1.00
2015,03,13,06,16,1.20
2015,03,13,06,17,1.10
2015,03,13,06,18,0.60
2015,03,13,06,19,0.10
2015,03,13,06,20,0.00
2015,03,13,06,21,0.00
2015,03,13,06,22,0.00
2015,03,13,06,23,0.20
2015,03,13,06,24,0.50
2015,03,13,06,25,0.90
2015,03,13,06,26,2.60
2015,03,13,06,27,3.00
2015,03,13,06,28,3.00
2015,03,13,06,29,3.30
2015,03,13,06,30,3.70
2015,03,13,06,31,3.60
2015,03,13,06,32,3.50
2015,03,13,06,33,3.10
2015,03,13,06,34,1.90
2015,03,13,06,35,1.80
2015,03,13,06,36,1.10
2015,03,13,06,37,0.70
2015,03,13,06,38,0.00
2015,03,13,06,39,0.00
2015,03,13,06,40,0.30
2015,03,13,06,41,0.00
2015,03,13,06,42,0.00
2015,03,13,06,43,0.00
2015,03,13,06,44,0.00
2015,03,13,06,45,0.50
2015,03,13,06,46,2.50
2015,03,13,06,47,3.80
2015,03,13,06,48,3.50
2015,03,13,06,49,4.20
2015,03,13,06,50,4.30
2015,03,13,06,51,3.30
2015,03,13,06,52,3.00
2015,03,13,06,53,2.30
2015,03,13,06,54,0.50
2015,03,13,06,55,0.30
2015,03,13,06,56,0.20
2015,03,13,06,57,1.20
2015,03,13,06,58,1.80
2015,03,13,06,59,2.40
2015,03,13,07,00,2.80
2015,03,13,07,01,2.10
2015,03,13,07,02,2.60
2015,03,13,07,03,2.80
2015,03,13,07,04,2.10
2015,03,13,07,05,1.70
2015,03,13,07,06,2.50
2015,03,13,07,07,2.40
2015,03,13,07,08,3.10
2015,03,13,07,09,1.40
2015,03,13,07,10,1.40
2015,03,13,07,11,1.00
2015,03,13,07,12,1.30
2015,03,13,07,13,1.00
2015,03,13,07,14,0.60
2015,03,13,07,15,1.20
2015,03,13,07,16,1.70
2015,03,13,07,17,2.00
2015,03,13,07,18,1.80
2015,03,13,07,19,0.70
2015,03,13,07,20,0.20
2015,03,13,07,21,0.10
2015,03,13,07,22,1.20
2015,03,13,07,23,2.30
2015,03,13,07,24,3.00
2015,03,13,07,25,2.40
2015,03,13,07,26,2.80
2015,03,13,07,27,2.10
2015,03,13,07,28,1.70
2015,03,13,07,29,1.80
2015,03,13,07,30,2.50
2015,03,13,07,31,2.60
2015,03,13,07,32,2.50
2015,03,13,07,33,2.40
2015,03,13,07,34,2.70
2015,03,13,07,35,2.80
2015,03,13,07,36,1.80
2015,03,13,07,37,2.40
2015,03,13,07,38,2.70
2015,03,13,07,39,2.70
2015,03,13,07,40,2.60
2015,03,13,07,41,2.60
2015,03,13,07,42,2.10
2015,03,13,07,43,1.80
2015,03,13,07,44,2.10
2015,03,13,07,45,2.40
2015,03,13,07,46,2.30
2015,03,13,07,47,2.50
2015,03,13,07,48,3.00
2015,03,13,07,49,3.30
2015,03,13,07,50,2.40
2015,03,13,07,51,1.70
2015,03,13,07,52,1.30
2015,03,13,07,53,1.30
2015,03,13,07,54,1.70
2015,03,13,07,55,1.60
2015,03,13,07,56,2.10
2015,03,13,07,57,2.80
2015,03,13,07,58,2.50
2015,03,13,07,59,1.60
2015,03,13,08,00,1.70
2015,03,13,08,01,2.20
2015,03,13,08,02,4.00
2015,03,13,08,03,3.00
2015,03,13,08,04,2.90
2015,03,13,08,05,2.20
2015,03,13,08,06,1.70
2015,03,13,08,07,0.90
2015,03,13,08,08,1.80
2015,03,13,08,09,2.80
2015,03,13,08,10,1.40
2015,03,13,08,11,0.40
2015,03,13,08,12,0.40
2015,03,13,08,13,0.10
2015,03,13,08,14,0.00
2015,03,13,08,15,0.00
2015,03,13,08,16,0.60
2015,03,13,08,17,0.70
2015,03,13,08,18,0.40
2015,03,13,08,19,0.70
2015,03,13,08,20,1.30
2015,03,13,08,21,1.40
2015,03,13,08,22,0.80
2015,03,13,08,23,0.60
2015,03,13,08,24,0.00
2015,03,13,08,25,0.00
2015,03,13,08,26,0.00
2015,03,13,08,27,0.00
2015,03,13,08,28,0.00
2015,03,13,08,29,0.00
2015,03,13,08,30,0.20
2015,03,13,08,31,0.70
2015,03,13,08,32,0.70
2015,03,13,08,33,0.30
2015,03,13,08,34,0.00
2015,03,13,08,35,0.00
2015,03,13,08,36,0.00
2015,03,13,08,37,0.00
2015,03,13,08,38,0.00
2015,03,13,08,39,1.40
2015,03,13,08,40,1.90
2015,03,13,08,41,1.70
2015,03,13,08,42,1.60
2015,03,13,08,43,1.10
2015,03,13,08,44,1.20
2015,03,13,08,45,0.90
2015,03,13,08,46,0.30
2015,03,13,08,47,0.00
2015,03,13,08,48,0.00
2015,03,13,08,49,0.00
2015,03,13,08,50,0.00
2015,03,13,08,51,0.40
2015,03,13,08,52,1.20
2015,03,13,08,53,1.40
2015,03,13,08,54,1.80
2015,03,13,08,55,1.80
2015,03,13,08,56,0.80
2015,03,13,08,57,0.00
2015,03,13,08,58,0.00
2015,03,13,08,59,0.00
2015,03,13,09,00,0.00
2015,03,13,09,01,0.70
2015,03,13,09,02,1.80
2015,03,13,09,03,0.80
2015,03,13,09,04,1.50
2015,03,13,09,05,0.90
2015,03,13,09,06,0.40
2015,03,13,09,07,0.90
2015,03,13,09,08,1.20
2015,03,13,09,09,2.20
2015,03,13,09,10,3.50
2015,03,13,09,11,3.20
2015,03,13,09,12,3.80
2015,03,13,09,13,2.70
2015,03,13,09,14,2.40
2015,03,13,09,15,1.80
2015,03,13,09,16,1.00
2015,03,13,09,17,0.20
2015,03,13,09,18,0.00
2015,03,13,09,19,0.10
2015,03,13,09,20,0.20
2015,03,13,09,21,1.00
2015,03,13,09,22,1.20
2015,03,13,09,23,1.60
2015,03,13,09,24,1.10
2015,03,13,09,25,1.60
2015,03,13,09,26,1.20
2015,03,13,09,27,0.70
2015,03,13,09,28,0.20
2015,03,13,09,29,0.10
2015,03,13,09,30,1.70
2015,03,13,09,31,1.10
2015,03,13,09,32,0.20
2015,03,13,09,33,0.00
2015,03,13,09,34,0.00
2015,03,13,09,35,0.00
2015,03,13,09,36,0.00
2015,03,13,09,37,0.00
2015,03,13,09,38,0.00
2015,03,13,09,39,0.00
2015,03,13,09,40,0.00
2015,03,13,09,41,0.70
2015,03,13,09,42,1.80
2015,03,13,09,43,1.20
2015,03,13,09,44,1.50
2015,03,13,09,45,1.70
2015,03,13,09,46,2.90
2015,03,13,09,47,3.70
2015,03,13,09,48,4.40
2015,03,13,09,49,3.80
2015,03,13,09,50,3.30
2015,03,13,09,51,3.50
2015,03,13,09,52,5.20
2015,03,13,09,53,4.60
2015,03,13,09,54,4.30
2015,03,13,09,55,3.20
2015,03,13,09,56,3.70
2015,03,13,09,57,2.80
2015,03,13,09,58,2.10
2015,03,13,09,59,3.40
2015,03,13,10,00,3.30
2015,03,13,10,01,2.40
2015,03,13,10,02,2.70
2015,03,13,10,03,1.10
2015,03,13,10,04,1.20
2015,03,13,10,05,0.90
2015,03,13,10,06,0.40
2015,03,13,10,07,0.30
2015,03,13,10,08,0.70
2015,03,13,10,09,0.80
2015,03,13,10,10,0.20
2015,03,13,10,11,0.40
2015,03,13,10,12,0.40
2015,03,13,10,13,1.00
2015,03,13,10,14,0.90
2015,03,13,10,15,1.50
2015,03,13,10,16,1.90
2015,03,13,10,17,2.60
2015,03,13,10,18,3.60
2015,03,13,10,19,3.30
2015,03,13,10,20,2.50
2015,03,13,10,21,2.40
2015,03,13,10,22,1.50
2015,03,13,10,23,2.30
2015,03,13,10,24,1.80
2015,03,13,10,25,1.00
2015,03,13,10,26,2.20
2015,03,13,10,27,2.80
2015,03,13,10,28,2.90
2015,03,13,10,29,2.60
2015,03,13,10,30,1.90
2015,03,13,10,31,4.00
2015,03,13,10,32,1.90
2015,03,13,10,33,2.80
2015,03,13,10,34,2.30
2015,03,13,10,35,4.80
2015,03,13,10,36,6.00
2015,03,13,10,37,4.50
2015,03,13,10,38,3.80
2015,03,13,10,39,3.80
2015,03,13,10,40,3.30
2015,03,13,10,41,3.00
2015,03,13,10,42,4.10
2015,03,13,10,43,3.50
2015,03,13,10,44,3.60
2015,03,13,10,45,3.00
2015,03,13,10,46,3.70
2015,03,13,10,47,3.80
2015,03,13,10,48,3.50
2015,03,13,10,49,3.70
2015,03,13,10,50,2.90
2015,03,13,10,51,3.30
2015,03,13,10,52,2.80
2015,03,13,10,53,2.80
2015,03,13,10,54,4.60
2015,03,13,10,55,4.50
2015,03,13,10,56,3.90
2015,03,13,10,57,5.40
2015,03,13,10,58,4.40
2015,03,13,10,59,4.30
2015,03,13,11,00,3.40
2015,03,13,11,01,4.80
2015,03,13,11,02,3.80
2015,03,13,11,03,1.80
2015,03,13,11,04,2.70
2015,03,13,11,05,5.40
2015,03,13,11,06,3.20
2015,03,13,11,07,3.00
2015,03,13,11,08,3.80
2015,03,13,11,09,4.90
2015,03,13,11,10,6.80
2015,03,13,11,11,7.00
2015,03,13,11,12,5.40
2015,03,13,11,13,3.80
2015,03,13,11,14,5.70
2015,03,13,11,15,3.60
2015,03,13,11,16,3.10
2015,03,13,11,17,3.50
2015,03,13,11,18,4.10
2015,03,13,11,19,4.50
2015,03,13,11,20,1.00
2015,03,13,11,21,0.80
2015,03,13,11,22,1.80
2015,03,13,11,23,4.00
2015,03,13,11,24,3.00
2015,03,13,11,25,2.40
2015,03,13,11,26,2.60
2015,03,13,11,27,2.70
2015,03,13,11,28,3.80
2015,03,13,11,29,3.50
2015,03,13,11,30,2.80
2015,03,13,11,31,3.20
2015,03,13,11,32,4.10
2015,03,13,11,33,2.30
2015,03,13,11,34,3.00
2015,03,13,11,35,5.70
2015,03,13,11,36,6.10
2015,03,13,11,37,6.70
2015,03,13,11,38,6.60
2015,03,13,11,39,5.70
2015,03,13,11,40,6.30
2015,03,13,11,41,5.50
2015,03,13,11,42,4.20
2015,03,13,11,43,3.10
2015,03,13,11,44,2.90
2015,03,13,11,45,2.80
2015,03,13,11,46,6.40
2015,03,13,11,47,6.70
2015,03,13,11,48,5.60
2015,03,13,11,49,5.30
2015,03,13,11,50,5.60
2015,03,13,11,51,5.30
2015,03,13,11,52,3.20
2015,03,13,11,53,3.80
2015,03,13,11,54,4.40
2015,03,13,11,55,3.80
2015,03,13,11,56,3.80
2015,03,13,11,57,7.20
2015,03,13,11,58,6.70
2015,03,13,11,59,3.70
2015,03,13,12,00,1.80
2015,03,13,12,01,2.80
2015,03,13,12,02,2.20
2015,03,13,12,03,2.70
2015,03,13,12,04,3.80
2015,03,13,12,05,4.80
2015,03,13,12,06,4.80
2015,03,13,12,07,5.00
2015,03,13,12,08,4.70
2015,03,13,12,09,4.00
2015,03,13,12,10,4.50
2015,03,13,12,11,2.70
2015,03,13,12,12,4.20
2015,03,13,12,13,4.90
2015,03,13,12,14,2.00
2015,03,13,12,15,2.20
2015,03,13,12,16,1.80
2015,03,13,12,17,1.60
2015,03,13,12,18,1.30
2015,03,13,12,19,3.40
2015,03,13,12,20,5.00
2015,03,13,12,21,4.20
2015,03,13,12,22,4.10
2015,03,13,12,23,6.30
2015,03,13,12,24,6.50
2015,03,13,12,25,6.30
2015,03,13,12,26,6.60
2015,03,13,12,27,5.00
2015,03,13,12,28,6.20
2015,03,13,12,29,6.40
2015,03,13,12,30,7.10
2015,03,13,12,31,3.90
2015,03,13,12,32,3.10
2015,03,13,12,33,4.70
2015,03,13,12,34,3.50
2015,03,13,12,35,4.10
2015,03,13,12,36,3.60
2015,03,13,12,37,2.70
2015,03,13,12,38,1.50
2015,03,13,12,39,4.10
2015,03,13,12,40,3.70
2015,03,13,12,41,4.20
2015,03,13,12,42,3.90
2015,03,13,12,43,2.70
2015,03,13,12,44,3.40
2015,03,13,12,45,4.40
2015,03,13,12,46,3.80
2015,03,13,12,47,2.80
2015,03,13,12,48,3.20
2015,03,13,12,49,3.10
2015,03,13,12,50,4.40
2015,03,13,12,51,6.10
2015,03,13,12,52,3.90
2015,03,13,12,53,5.50
2015,03,13,12,54,4.60
2015,03,13,12,55,3.10
2015,03,13,12,56,4.40
2015,03,13,12,57,3.20
2015,03,13,12,58,2.30
2015,03,13,12,59,3.00
2015,03,13,13,00,4.00
2015,03,13,13,01,4.30
2015,03,13,13,02,2.30
2015,03,13,13,03,3.30
2015,03,13,13,04,5.70
2015,03,13,13,05,3.60
2015,03,13,13,06,4.10
2015,03,13,13,07,3.20
2015,03,13,13,08,2.90
2015,03,13,13,09,4.00
2015,03,13,13,10,7.30
2015,03,13,13,11,6.00
2015,03,13,13,12,3.20
2015,03,13,13,13,3.20
2015,03,13,13,14,4.60
2015,03,13,13,15,3.70
2015,03,13,13,16,3.40
2015,03,13,13,17,3.20
2015,03,13,13,18,3.50
2015,03,13,13,19,3.90
2015,03,13,13,20,5.20
2015,03,13,13,21,5.30
2015,03,13,13,22,5.40
2015,03,13,13,23,6.40
2015,03,13,13,24,5.60
2015,03,13,13,25,6.80
2015,03,13,13,26,5.30
2015,03,13,13,27,8.40
2015,03,13,13,28,7.20
2015,03,13,13,29,5.90
2015,03,13,13,30,5.70
2015,03,13,13,31,6.30
2015,03,13,13,32,3.50
2015,03,13,13,33,4.00
2015,03,13,13,34,3.80
2015,03,13,13,35,5.20
2015,03,13,13,36,4.70
2015,03,13,13,37,4.20
2015,03,13,13,38,3.90
2015,03,13,13,39,2.60
2015,03,13,13,40,4.40
2015,03,13,13,41,5.20
2015,03,13,13,42,2.40
2015,03,13,13,43,3.40
2015,03,13,13,44,5.20
2015,03,13,13,45,2.30
2015,03,13,13,46,2.10
2015,03,13,13,47,2.10
2015,03,13,13,48,2.50
2015,03,13,13,49,2.60
2015,03,13,13,50,2.40
2015,03,13,13,51,4.80
2015,03,13,13,52,2.90
2015,03,13,13,53,2.60
2015,03,13,13,54,3.40
2015,03,13,13,55,2.60
2015,03,13,13,56,3.90
2015,03,13,13,57,3.20
2015,03,13,13,58,3.90
2015,03,13,13,59,4.10
2015,03,13,14,00,2.80
2015,03,13,14,01,2.40
2015,03,13,14,02,2.50
2015,03,13,14,03,3.30
2015,03,13,14,04,2.50
2015,03,13,14,05,2.80
2015,03,13,14,06,3.20
2015,03,13,14,07,4.00
2015,03,13,14,08,4.10
2015,03,13,14,09,4.30
2015,03,13,14,10,4.80
2015,03,13,14,11,5.30
2015,03,13,14,12,5.20
2015,03,13,14,13,4.30
2015,03,13,14,14,3.50
2015,03,13,14,15,2.40
2015,03,13,14,16,2.50
2015,03,13,14,17,1.40
2015,03,13,14,18,4.20
2015,03,13,14,19,4.90
2015,03,13,14,20,3.60
2015,03,13,14,21,3.30
2015,03,13,14,22,3.30
2015,03,13,14,23,2.90
2015,03,13,14,24,5.20
2015,03,13,14,25,6.40
2015,03,13,14,26,4.90
2015,03,13,14,27,3.90
2015,03,13,14,28,7.90
2015,03,13,14,29,5.70
2015,03,13,14,30,3.50
2015,03,13,14,31,6.00
2015,03,13,14,32,4.60
2015,03,13,14,33,2.80
2015,03,13,14,34,4.30
2015,03,13,14,35,6.30
2015,03,13,14,36,3.80
2015,03,13,14,37,2.20
2015,03,13,14,38,2.80
2015,03,13,14,39,2.10
2015,03,13,14,40,4.60
2015,03,13,14,41,4.40
2015,03,13,14,42,4.50
2015,03,13,14,43,4.00
2015,03,13,14,44,4.00
2015,03,13,14,45,3.80
2015,03,13,14,46,2.30
2015,03,13,14,47,3.50
2015,03,13,14,48,2.40
2015,03,13,14,49,5.80
2015,03,13,14,50,4.60
2015,03,13,14,51,4.20
2015,03,13,14,52,2.60
2015,03,13,14,53,4.90
2015,03,13,14,54,2.60
2015,03,13,14,55,3.60
2015,03,13,14,56,3.70
2015,03,13,14,57,4.30
2015,03,13,14,58,5.20
2015,03,13,14,59,2.60
2015,03,13,15,00,6.60
2015,03,13,15,01,3.40
2015,03,13,15,02,2.20
2015,03,13,15,03,3.20
2015,03,13,15,04,3.00
2015,03,13,15,05,3.40
2015,03,13,15,06,2.90
2015,03,13,15,07,3.50
2015,03,13,15,08,7.30
2015,03,13,15,09,4.80
2015,03,13,15,10,2.90
2015,03,13,15,11,2.80
2015,03,13,15,12,3.60
2015,03,13,15,13,4.00
2015,03,13,15,14,2.90
2015,03,13,15,15,2.90
2015,03,13,15,16,2.90
2015,03,13,15,17,3.50
2015,03,13,15,18,3.40
2015,03,13,15,19,3.30
2015,03,13,15,20,3.20
2015,03,13,15,21,3.40
2015,03,13,15,22,2.30
2015,03,13,15,23,2.60
2015,03,13,15,24,3.70
2015,03,13,15,25,3.90
2015,03,13,15,26,2.90
2015,03,13,15,27,1.40
2015,03,13,15,28,0.60
2015,03,13,15,29,0.20
2015,03,13,15,30,1.30
2015,03,13,15,31,4.20
2015,03,13,15,32,2.40
2015,03,13,15,33,1.40
2015,03,13,15,34,2.00
2015,03,13,15,35,2.40
2015,03,13,15,36,3.40
2015,03,13,15,37,2.30
2015,03,13,15,38,2.40
2015,03,13,15,39,1.60
2015,03,13,15,40,2.00
2015,03,13,15,41,3.30
2015,03,13,15,42,1.70
2015,03,13,15,43,0.20
2015,03,13,15,44,1.70
2015,03,13,15,45,2.70
2015,03,13,15,46,2.20
2015,03,13,15,47,2.10
2015,03,13,15,48,3.10
2015,03,13,15,49,4.00
2015,03,13,15,50,2.10
2015,03,13,15,51,2.60
2015,03,13,15,52,2.60
2015,03,13,15,53,1.30
2015,03,13,15,54,4.20
2015,03,13,15,55,5.60
2015,03,13,15,56,4.70
2015,03,13,15,57,3.40
2015,03,13,15,58,3.90
2015,03,13,15,59,2.00
2015,03,13,16,00,2.50
2015,03,13,16,01,1.90
2015,03,13,16,02,1.80
2015,03,13,16,03,1.60
2015,03,13,16,04,1.30
2015,03,13,16,05,2.50
2015,03,13,16,06,2.60
2015,03,13,16,07,3.50
2015,03,13,16,08,3.10
2015,03,13,16,09,4.30
2015,03,13,16,10,3.60
2015,03,13,16,11,2.60
2015,03,13,16,12,3.00
2015,03,13,16,13,2.70
2015,03,13,16,14,5.40
2015,03,13,16,15,2.90
2015,03,13,16,16,4.10
2015,03,13,16,17,3.50
2015,03,13,16,18,4.80
2015,03,13,16,19,3.40
2015,03,13,16,20,4.10
2015,03,13,16,21,3.30
2015,03,13,16,22,3.00
2015,03,13,16,23,4.60
2015,03,13,16,24,4.10
2015,03,13,16,25,4.40
2015,03,13,16,26,4.60
2015,03,13,16,27,2.10
2015,03,13,16,28,3.20
2015,03,13,16,29,3.30
2015,03,13,16,30,2.30
2015,03,13,16,31,3.70
2015,03,13,16,32,2.10
2015,03,13,16,33,3.70
2015,03,13,16,34,3.00
2015,03,13,16,35,2.90
2015,03,13,16,36,2.10
2015,03,13,16,37,1.20
2015,03,13,16,38,2.50
2015,03,13,16,39,2.40
2015,03,13,16,40,2.80
2015,03,13,16,41,1.90
2015,03,13,16,42,2.20
2015,03,13,16,43,2.90
2015,03,13,16,44,4.10
2015,03,13,16,45,4.80
2015,03,13,16,46,3.10
2015,03,13,16,47,3.70
2015,03,13,16,48,4.30
2015,03,13,16,49,4.10
2015,03,13,16,50,2.40
2015,03,13,16,51,3.40
2015,03,13,16,52,6.30
2015,03,13,16,53,5.80
2015,03,13,16,54,3.50
2015,03,13,16,55,2.80
2015,03,13,16,56,3.20
2015,03,13,16,57,1.80
2015,03,13,16,58,2.30
2015,03,13,16,59,4.70
2015,03,13,17,00,4.20
2015,03,13,17,01,2.00
2015,03,13,17,02,5.40
2015,03,13,17,03,4.90
2015,03,13,17,04,5.00
2015,03,13,17,05,3.70
2015,03,13,17,06,2.20
2015,03,13,17,07,3.60
2015,03,13,17,08,3.80
2015,03,13,17,09,4.60
2015,03,13,17,10,5.10
2015,03,13,17,11,4.50
2015,03,13,17,12,3.70
2015,03,13,17,13,4.20
2015,03,13,17,14,3.20
2015,03,13,17,15,2.90
2015,03,13,17,16,4.50
2015,03,13,17,17,3.20
2015,03,13,17,18,4.10
2015,03,13,17,19,3.30
2015,03,13,17,20,2.20
2015,03,13,17,21,3.80
2015,03,13,17,22,5.30
2015,03,13,17,23,3.60
2015,03,13,17,24,3.50
2015,03,13,17,25,3.70
2015,03,13,17,26,3.40
2015,03,13,17,27,1.70
2015,03,13,17,28,2.20
2015,03,13,17,29,3.40
2015,03,13,17,30,0.70
2015,03,13,17,31,1.20
2015,03,13,17,32,1.80
2015,03,13,17,33,2.70
2015,03,13,17,34,2.10
2015,03,13,17,35,1.60
2015,03,13,17,36,3.40
2015,03,13,17,37,2.10
2015,03,13,17,38,5.10
2015,03,13,17,39,2.80
2015,03,13,17,40,1.70
2015,03,13,17,41,3.20
2015,03,13,17,42,3.30
2015,03,13,17,43,4.30
2015,03,13,17,44,2.20
2015,03,13,17,45,1.40
2015,03,13,17,46,1.80
2015,03,13,17,47,1.00
2015,03,13,17,48,4.60
2015,03,13,17,49,4.50
2015,03,13,17,50,2.60
2015,03,13,17,51,2.90
2015,03,13,17,52,2.80
2015,03,13,17,53,4.10
2015,03,13,17,54,3.40
2015,03,13,17,55,2.80
2015,03,13,17,56,2.80
2015,03,13,17,57,0.90
2015,03,13,17,58,1.70
2015,03,13,17,59,0.80
2015,03,13,18,00,0.70
2015,03,13,18,01,0.50
2015,03,13,18,02,1.10
2015,03,13,18,03,1.60
2015,03,13,18,04,1.90
2015,03,13,18,05,1.60
2015,03,13,18,06,0.70